Location: Naloco
(16.5478°S, 37.1017°E)
Time: 02:14:14
(UTC+00:00)

FALCON 9 R/B - Pass Details

Date: 13 August 2020
Orbit: 295 x 10129 km, 34.5° (Epoch: 23 September)

Event Time Altitude Azimuth Distance (km) Brightness Sun altitude
Rises 16:18:12 0° 328° (NNW) 2,567 5.4 -13.8°
Reaches altitude 10° 16:21:21 10° 359° (N) 1,254 3.3 -14.6°
Enters shadow 16:22:33 13° 29° (NNE) 1,017 2.5 -14.9°
